When you browse on this site, cookies collect data to enhance your experience and personalize the content and advertising you see.
Visit our Privacy Policy to learn more. By continuing to use the site, you agree to this use of cookies and data.
  • In Latvia
  • List of Countries
  • For 7 days
  • Water Temperature
  • Weather Map
  • Weather Widgets
  • user-avatar
    Login

    Hourly Weather Velikaya

    Today, 22 February, Saturday

    Time Temperature Precipitation Wind Pressure Humidity
    00:00 0°C° 0 mm 5 mps 754 mmHg 85%
    01:00 0°C° 0 mm 4 mps 754 mmHg 87%
    02:00 +1°C° 0 mm 4 mps 754 mmHg 87%
    03:00 0°C° 0 mm 4 mps 754 mmHg 88%
    04:00 -1°C° 0 mm 5 mps 754 mmHg 89%
    05:00 -1°C° 0 mm 5 mps 754 mmHg 89%
    06:00 -1°C° 0 mm 5 mps 754 mmHg 89%
    07:00 -2°C° 0 mm 6 mps 754 mmHg 88%
    08:00 -1°C° 0 mm 6 mps 753 mmHg 86%
    09:00 -1°C° 0 mm 6 mps 753 mmHg 83%
    10:00 +1°C° 0 mm 6 mps 752 mmHg 80%
    11:00 0°C° 0 mm 7 mps 752 mmHg 77%
    12:00 0°C° 0 mm 7 mps 751 mmHg 74%
    13:00 +1°C° 0 mm 8 mps 750 mmHg 72%
    14:00 +1°C° 0 mm 8 mps 749 mmHg 69%
    15:00 +1°C° 0.5 mm 8 mps 748 mmHg 76%
    16:00 0°C° 0.5 mm 9 mps 746 mmHg 83%
    17:00 0°C° 0.5 mm 9 mps 744 mmHg 91%
    18:00 0°C° 0.8 mm 9 mps 743 mmHg 90%
    19:00 0°C° 0.8 mm 10 mps 742 mmHg 89%
    20:00 0°C° 0.8 mm 10 mps 740 mmHg 88%
    21:00 +1°C° 0.5 mm 10 mps 739 mmHg 86%
    22:00 +1°C° 0.5 mm 9 mps 738 mmHg 85%
    23:00 +2°C° 0.5 mm 9 mps 736 mmHg 83%

    Tomorrow, 23 February, Sunday

    Time Temperature Precipitation Wind Pressure Humidity
    00:00 +1°C° 0.5 mm 8 mps 736 mmHg 80%
    01:00 +2°C° 0.5 mm 7 mps 736 mmHg 76%
    02:00 +2°C° 0.5 mm 6 mps 736 mmHg 72%
    03:00 +1°C° 0 mm 6 mps 736 mmHg 74%
    04:00 +1°C° 0 mm 6 mps 736 mmHg 75%
    05:00 0°C° 0 mm 5 mps 736 mmHg 77%
    06:00 0°C° 0 mm 5 mps 736 mmHg 77%
    07:00 0°C° 0 mm 5 mps 736 mmHg 78%
    08:00 0°C° 0 mm 5 mps 737 mmHg 79%
    09:00 -1°C° 0 mm 6 mps 737 mmHg 77%
    10:00 +1°C° 0 mm 6 mps 737 mmHg 74%
    11:00 0°C° 0 mm 7 mps 736 mmHg 72%
    12:00 0°C° 0 mm 7 mps 736 mmHg 73%
    13:00 0°C° 0 mm 7 mps 736 mmHg 74%
    14:00 +2°C° 0 mm 7 mps 736 mmHg 74%
    15:00 0°C° 0.1 mm 7 mps 736 mmHg 76%
    16:00 +1°C° 0.1 mm 6 mps 735 mmHg 78%
    17:00 +1°C° 0.1 mm 6 mps 735 mmHg 80%
    18:00 +1°C° 0.1 mm 6 mps 735 mmHg 82%
    19:00 +1°C° 0.1 mm 6 mps 735 mmHg 83%
    20:00 +1°C° 0.1 mm 6 mps 735 mmHg 85%
    21:00 0°C° 0.1 mm 5 mps 735 mmHg 87%
    22:00 0°C° 0.1 mm 5 mps 735 mmHg 89%
    23:00 0°C° 0.1 mm 5 mps 735 mmHg 91%

    Day after tomorrow, 24 February, Monday

    Time Temperature Precipitation Wind Pressure Humidity
    00:00 0°C° 0 mm 5 mps 735 mmHg 88%
    01:00 0°C° 0 mm 5 mps 735 mmHg 85%
    02:00 0°C° 0 mm 5 mps 735 mmHg 83%
    03:00 0°C° 0 mm 5 mps 736 mmHg 82%
    04:00 -1°C° 0 mm 5 mps 736 mmHg 80%
    05:00 -1°C° 0 mm 5 mps 736 mmHg 79%
    06:00 -1°C° 0 mm 5 mps 737 mmHg 77%
    07:00 -1°C° 0 mm 5 mps 738 mmHg 75%
    08:00 -1°C° 0 mm 5 mps 739 mmHg 74%
    09:00 -2°C° 0 mm 6 mps 740 mmHg 67%
    10:00 -1°C° 0 mm 6 mps 741 mmHg 61%
    11:00 -1°C° 0 mm 7 mps 741 mmHg 55%
    12:00 -1°C° 0 mm 7 mps 742 mmHg 54%
    13:00 -1°C° 0 mm 7 mps 743 mmHg 53%
    14:00 0°C° 0 mm 7 mps 743 mmHg 52%
    15:00 -1°C° 0 mm 6 mps 743 mmHg 54%
    16:00 0°C° 0 mm 5 mps 744 mmHg 56%
    17:00 -1°C° 0 mm 5 mps 744 mmHg 59%
    18:00 -1°C° 0 mm 4 mps 745 mmHg 63%
    19:00 -2°C° 0 mm 4 mps 745 mmHg 67%
    20:00 -2°C° 0 mm 3 mps 746 mmHg 71%
    21:00 -2°C° 0 mm 3 mps 746 mmHg 72%
    22:00 -2°C° 0 mm 3 mps 746 mmHg 74%
    23:00 -2°C° 0 mm 2 mps 746 mmHg 75%

    25 February, Tuesday

    Time Temperature Precipitation Wind Pressure Humidity
    00:00 -2°C° 0 mm 2 mps 746 mmHg 76%
    01:00 -2°C° 0 mm 2 mps 746 mmHg 77%
    02:00 -2°C° 0 mm 2 mps 746 mmHg 78%
    03:00 -2°C° 0 mm 2 mps 746 mmHg 78%
    04:00 -2°C° 0 mm 2 mps 746 mmHg 78%
    05:00 -3°C° 0 mm 2 mps 745 mmHg 78%
    06:00 -2°C° 0 mm 2 mps 745 mmHg 76%
    07:00 -2°C° 0 mm 2 mps 744 mmHg 74%
    08:00 -2°C° 0 mm 3 mps 744 mmHg 72%
    09:00 -1°C° 0.1 mm 3 mps 743 mmHg 78%
    10:00 -2°C° 0.1 mm 4 mps 743 mmHg 84%
    11:00 -1°C° 0.1 mm 4 mps 742 mmHg 90%
    12:00 -1°C° 0.1 mm 4 mps 741 mmHg 87%
    13:00 0°C° 0.1 mm 4 mps 741 mmHg 84%
    14:00 0°C° 0.1 mm 4 mps 740 mmHg 81%
    15:00 0°C° 0.4 mm 5 mps 739 mmHg 86%
    16:00 -1°C° 0.4 mm 5 mps 738 mmHg 91%
    17:00 -2°C° 0.4 mm 5 mps 737 mmHg 96%
    18:00 -1°C° 0.4 mm 5 mps 737 mmHg 95%
    19:00 0°C° 0.4 mm 4 mps 736 mmHg 93%
    20:00 0°C° 0.4 mm 4 mps 736 mmHg 91%
    21:00 0°C° 0 mm 4 mps 736 mmHg 91%
    22:00 -1°C° 0 mm 4 mps 736 mmHg 90%
    23:00 -1°C° 0 mm 4 mps 736 mmHg 90%

    26 February, Wednesday

    Time Temperature Precipitation Wind Pressure Humidity
    00:00 0°C° 0 mm 3 mps 736 mmHg 89%
    01:00 0°C° 0 mm 3 mps 735 mmHg 89%
    02:00 0°C° 0 mm 3 mps 735 mmHg 88%
    03:00 -1°C° 0 mm 3 mps 735 mmHg 90%
    04:00 -1°C° 0 mm 3 mps 734 mmHg 91%
    05:00 -1°C° 0 mm 3 mps 734 mmHg 93%
    06:00 -1°C° 0 mm 3 mps 734 mmHg 91%
    07:00 -1°C° 0 mm 3 mps 734 mmHg 90%
    08:00 0°C° 0 mm 3 mps 734 mmHg 88%
    09:00 -1°C° 0 mm 4 mps 734 mmHg 84%
    10:00 0°C° 0 mm 4 mps 735 mmHg 80%
    11:00 0°C° 0 mm 5 mps 735 mmHg 77%
    12:00 0°C° 0 mm 5 mps 735 mmHg 75%
    13:00 +1°C° 0 mm 5 mps 735 mmHg 73%
    14:00 +1°C° 0 mm 5 mps 735 mmHg 72%
    15:00 +1°C° 0 mm 5 mps 736 mmHg 72%
    16:00 0°C° 0 mm 4 mps 736 mmHg 73%
    17:00 0°C° 0 mm 4 mps 736 mmHg 74%
    18:00 0°C° 0 mm 4 mps 736 mmHg 76%
    19:00 -1°C° 0 mm 4 mps 737 mmHg 77%
    20:00 -1°C° 0 mm 4 mps 738 mmHg 79%
    21:00 -2°C° 0 mm 4 mps 738 mmHg 80%
    22:00 -1°C° 0 mm 3 mps 738 mmHg 80%
    23:00 -1°C° 0 mm 3 mps 738 mmHg 81%

    27 February, Thursday

    Time Temperature Precipitation Wind Pressure Humidity
    00:00 -1°C° 0 mm 3 mps 739 mmHg 82%
    01:00 -1°C° 0 mm 3 mps 739 mmHg 83%
    02:00 -2°C° 0 mm 3 mps 739 mmHg 84%
    03:00 -2°C° 0 mm 3 mps 739 mmHg 85%
    04:00 -2°C° 0 mm 3 mps 739 mmHg 87%
    05:00 -2°C° 0 mm 3 mps 740 mmHg 88%
    06:00 -2°C° 0 mm 3 mps 740 mmHg 88%
    07:00 -2°C° 0 mm 3 mps 740 mmHg 88%
    08:00 -2°C° 0 mm 3 mps 740 mmHg 89%
    09:00 0°C° 0 mm 3 mps 741 mmHg 84%
    10:00 +1°C° 0 mm 3 mps 741 mmHg 80%
    11:00 +2°C° 0 mm 3 mps 741 mmHg 76%
    12:00 +3°C° 0.1 mm 2 mps 741 mmHg 77%
    13:00 +3°C° 0.1 mm 2 mps 741 mmHg 78%
    14:00 +3°C° 0.1 mm 2 mps 742 mmHg 79%
    15:00 +3°C° 0.1 mm 2 mps 742 mmHg 83%
    16:00 +2°C° 0.1 mm 2 mps 742 mmHg 86%
    17:00 +2°C° 0.1 mm 1 mps 743 mmHg 90%
    18:00 +1°C° 0 mm 2 mps 743 mmHg 91%
    19:00 -1°C° 0 mm 2 mps 743 mmHg 92%
    20:00 -1°C° 0 mm 2 mps 744 mmHg 93%
    21:00 -2°C° 0 mm 2 mps 744 mmHg 90%
    22:00 -2°C° 0 mm 2 mps 744 mmHg 88%
    23:00 -3°C° 0 mm 2 mps 745 mmHg 86%
    Show more